• In Lithuania
  • List of Countries
  • For 7 days
  • Water Temperature
  • Satellite Maps
  • Weather Map
  • Weather Widgets
  • user-avatar
    Login

    Hourly Weather Pervomaisk

    Today, 18 September, Tuesday

    Time Temperature Precipitation Wind Pressure Humidity
    00:00 +14°C° 0 mm 0 mps 760 mmHg 51%
    01:00 +14°C° 0 mm 0 mps 760 mmHg 52%
    02:00 +13°C° 0 mm 0 mps 760 mmHg 53%
    03:00 +14°C° 0 mm 1 mps 760 mmHg 54%
    04:00 +14°C° 0 mm 1 mps 760 mmHg 55%
    05:00 +14°C° 0 mm 1 mps 760 mmHg 57%
    06:00 +15°C° 0 mm 1 mps 760 mmHg 54%
    07:00 +18°C° 0 mm 1 mps 760 mmHg 52%
    08:00 +19°C° 0 mm 1 mps 760 mmHg 48%
    09:00 +20°C° 0 mm 2 mps 760 mmHg 45%
    10:00 +21°C° 0 mm 2 mps 760 mmHg 43%
    11:00 +23°C° 0 mm 2 mps 760 mmHg 40%
    12:00 +24°C° 0 mm 2 mps 760 mmHg 39%
    13:00 +25°C° 0 mm 2 mps 760 mmHg 37%
    14:00 +26°C° 0 mm 2 mps 760 mmHg 35%
    15:00 +25°C° 0 mm 2 mps 759 mmHg 37%
    16:00 +25°C° 0 mm 2 mps 759 mmHg 39%
    17:00 +25°C° 0 mm 2 mps 759 mmHg 41%
    18:00 +23°C° 0 mm 1 mps 759 mmHg 44%
    19:00 +22°C° 0 mm 1 mps 759 mmHg 48%
    20:00 +20°C° 0 mm 1 mps 759 mmHg 51%
    21:00 +20°C° 0 mm 1 mps 759 mmHg 52%
    22:00 +19°C° 0 mm 1 mps 759 mmHg 54%
    23:00 +17°C° 0 mm 0 mps 759 mmHg 55%

    Tomorrow, 19 September, Wednesday

    Time Temperature Precipitation Wind Pressure Humidity
    00:00 +18°C° 0 mm 1 mps 759 mmHg 57%
    01:00 +18°C° 0 mm 1 mps 760 mmHg 58%
    02:00 +18°C° 0 mm 1 mps 760 mmHg 59%
    03:00 +16°C° 0 mm 1 mps 760 mmHg 60%
    04:00 +16°C° 0 mm 1 mps 760 mmHg 62%
    05:00 +16°C° 0 mm 1 mps 760 mmHg 63%
    06:00 +18°C° 0 mm 1 mps 760 mmHg 59%
    07:00 +19°C° 0 mm 1 mps 760 mmHg 55%
    08:00 +21°C° 0 mm 1 mps 760 mmHg 51%
    09:00 +23°C° 0 mm 1 mps 760 mmHg 46%
    10:00 +24°C° 0 mm 1 mps 760 mmHg 42%
    11:00 +26°C° 0 mm 2 mps 760 mmHg 37%
    12:00 +27°C° 0 mm 2 mps 760 mmHg 35%
    13:00 +27°C° 0 mm 2 mps 760 mmHg 33%
    14:00 +28°C° 0 mm 2 mps 759 mmHg 32%
    15:00 +28°C° 0 mm 2 mps 759 mmHg 33%
    16:00 +27°C° 0 mm 1 mps 759 mmHg 35%
    17:00 +27°C° 0 mm 1 mps 759 mmHg 37%
    18:00 +25°C° 0 mm 1 mps 759 mmHg 40%
    19:00 +24°C° 0 mm 1 mps 759 mmHg 43%
    20:00 +22°C° 0 mm 1 mps 759 mmHg 46%
    21:00 +22°C° 0 mm 1 mps 759 mmHg 47%
    22:00 +21°C° 0 mm 1 mps 759 mmHg 49%
    23:00 +21°C° 0 mm 1 mps 759 mmHg 50%

    Day after tomorrow, 20 September, Thursday

    Time Temperature Precipitation Wind Pressure Humidity
    00:00 +20°C° 0 mm 1 mps 759 mmHg 51%
    01:00 +20°C° 0 mm 1 mps 759 mmHg 53%
    02:00 +19°C° 0 mm 1 mps 759 mmHg 54%
    03:00 +19°C° 0 mm 1 mps 759 mmHg 55%
    04:00 +19°C° 0 mm 1 mps 759 mmHg 56%
    05:00 +18°C° 0 mm 1 mps 759 mmHg 57%
    06:00 +20°C° 0 mm 1 mps 759 mmHg 54%
    07:00 +21°C° 0 mm 1 mps 759 mmHg 50%
    08:00 +23°C° 0 mm 1 mps 759 mmHg 46%
    09:00 +24°C° 0 mm 1 mps 759 mmHg 42%
    10:00 +26°C° 0 mm 1 mps 759 mmHg 38%
    11:00 +28°C° 0 mm 1 mps 759 mmHg 34%
    12:00 +28°C° 0 mm 1 mps 759 mmHg 32%
    13:00 +29°C° 0 mm 1 mps 758 mmHg 30%
    14:00 +29°C° 0 mm 1 mps 758 mmHg 29%
    15:00 +29°C° 0 mm 1 mps 758 mmHg 31%
    16:00 +29°C° 0 mm 1 mps 757 mmHg 32%
    17:00 +28°C° 0 mm 1 mps 757 mmHg 34%
    18:00 +26°C° 0 mm 1 mps 757 mmHg 37%
    19:00 +25°C° 0 mm 1 mps 757 mmHg 39%
    20:00 +23°C° 0 mm 1 mps 757 mmHg 42%
    21:00 +23°C° 0 mm 1 mps 757 mmHg 44%
    22:00 +22°C° 0 mm 1 mps 757 mmHg 45%
    23:00 +21°C° 0 mm 1 mps 757 mmHg 47%

    21 September, Friday

    Time Temperature Precipitation Wind Pressure Humidity
    00:00 +21°C° 0 mm 1 mps 757 mmHg 49%
    01:00 +21°C° 0 mm 1 mps 757 mmHg 51%
    02:00 +20°C° 0 mm 1 mps 757 mmHg 53%
    03:00 +20°C° 0 mm 1 mps 757 mmHg 54%
    04:00 +19°C° 0 mm 1 mps 757 mmHg 56%
    05:00 +19°C° 0 mm 1 mps 757 mmHg 57%
    06:00 +21°C° 0 mm 1 mps 757 mmHg 54%
    07:00 +22°C° 0 mm 1 mps 757 mmHg 51%
    08:00 +23°C° 0 mm 1 mps 757 mmHg 48%
    09:00 +25°C° 0 mm 1 mps 757 mmHg 43%
    10:00 +27°C° 0 mm 2 mps 757 mmHg 39%
    11:00 +28°C° 0 mm 2 mps 757 mmHg 34%
    12:00 +29°C° 0 mm 2 mps 757 mmHg 32%
    13:00 +29°C° 0 mm 2 mps 757 mmHg 30%
    14:00 +30°C° 0 mm 1 mps 756 mmHg 28%
    15:00 +29°C° 0 mm 1 mps 756 mmHg 30%
    16:00 +29°C° 0 mm 1 mps 756 mmHg 32%
    17:00 +29°C° 0 mm 1 mps 755 mmHg 34%
    18:00 +27°C° 0 mm 1 mps 755 mmHg 36%
    19:00 +25°C° 0 mm 2 mps 755 mmHg 38%
    20:00 +24°C° 0 mm 2 mps 755 mmHg 41%
    21:00 +23°C° 0 mm 2 mps 755 mmHg 43%
    22:00 +21°C° 0 mm 2 mps 755 mmHg 44%
    23:00 +21°C° 0 mm 2 mps 755 mmHg 46%

    22 September, Saturday

    Time Temperature Precipitation Wind Pressure Humidity
    00:00 +21°C° 0 mm 1 mps 755 mmHg 47%
    01:00 +21°C° 0 mm 1 mps 755 mmHg 48%
    02:00 +21°C° 0 mm 1 mps 755 mmHg 49%
    03:00 +20°C° 0 mm 1 mps 755 mmHg 50%
    04:00 +20°C° 0 mm 1 mps 755 mmHg 51%
    05:00 +20°C° 0 mm 1 mps 754 mmHg 51%
    06:00 +21°C° 0 mm 1 mps 754 mmHg 49%
    07:00 +21°C° 0 mm 2 mps 754 mmHg 46%
    08:00 +24°C° 0 mm 2 mps 754 mmHg 44%
    09:00 +25°C° 0 mm 2 mps 754 mmHg 40%
    10:00 +27°C° 0 mm 3 mps 754 mmHg 36%
    11:00 +29°C° 0 mm 3 mps 754 mmHg 32%
    12:00 +29°C° 0 mm 4 mps 753 mmHg 31%
    13:00 +30°C° 0 mm 4 mps 753 mmHg 30%
    14:00 +30°C° 0 mm 4 mps 752 mmHg 28%
    15:00 +30°C° 0 mm 4 mps 752 mmHg 30%
    16:00 +29°C° 0 mm 3 mps 752 mmHg 33%
    17:00 +28°C° 0 mm 3 mps 751 mmHg 35%
    18:00 +26°C° 0 mm 3 mps 751 mmHg 38%
    19:00 +25°C° 0 mm 3 mps 751 mmHg 41%
    20:00 +22°C° 0 mm 3 mps 751 mmHg 44%
    21:00 +21°C° 0 mm 3 mps 751 mmHg 48%
    22:00 +20°C° 0 mm 3 mps 751 mmHg 51%
    23:00 +19°C° 0 mm 3 mps 750 mmHg 55%

    23 September, Sunday

    Time Temperature Precipitation Wind Pressure Humidity
    00:00 +19°C° 0 mm 3 mps 750 mmHg 60%
    01:00 +18°C° 0 mm 3 mps 750 mmHg 64%
    02:00 +18°C° 0 mm 3 mps 750 mmHg 69%
    03:00 +17°C° 0 mm 4 mps 750 mmHg 71%
    04:00 +15°C° 0 mm 5 mps 751 mmHg 73%
    05:00 +15°C° 0 mm 5 mps 751 mmHg 75%
    06:00 +14°C° 0.9 mm 6 mps 751 mmHg 77%
    07:00 +12°C° 0.9 mm 7 mps 751 mmHg 79%
    08:00 +11°C° 0.9 mm 8 mps 751 mmHg 80%
    09:00 +11°C° 1.2 mm 8 mps 751 mmHg 80%
    10:00 +10°C° 1.2 mm 9 mps 752 mmHg 80%
    11:00 +10°C° 1.2 mm 9 mps 752 mmHg 79%
    12:00 +10°C° 0.2 mm 9 mps 752 mmHg 77%
    13:00 +10°C° 0.2 mm 9 mps 752 mmHg 75%
    14:00 +10°C° 0.2 mm 9 mps 752 mmHg 73%
    15:00 +11°C° 0 mm 9 mps 752 mmHg 71%
    16:00 +11°C° 0 mm 9 mps 752 mmHg 69%
    17:00 +11°C° 0 mm 8 mps 752 mmHg 66%
    18:00 +11°C° 0 mm 7 mps 752 mmHg 67%
    19:00 +11°C° 0 mm 6 mps 752 mmHg 68%
    20:00 +10°C° 0 mm 5 mps 752 mmHg 69%
    21:00 +10°C° 0 mm 5 mps 752 mmHg 71%
    22:00 +10°C° 0 mm 5 mps 752 mmHg 73%
    23:00 +10°C° 0 mm 5 mps 752 mmHg 74%
    Show more